Regional Weather Roundup
Issued by NWS

Home | Current Version | Previous Version | Graphics & Text | Print | Product List | Glossary On
Versions: 1 2 3 4 5 6 7 8 9 10 11 12 13 14 15 16 17 18 19 20 21 22 23 24 25 26 27 28 29 30 31 32 33 34 35 36 37 38 39 40 41 42 43 44 45 46 47 48 49 50
000
ASUS43 KTOP 301159
RWRKS

WEATHER ROUNDUP FOR KANSAS
NATIONAL WEATHER SERVICE GOODLAND KS
700 AM CDT SUN AUG 30 2015

NOTE:  "FAIR" INDICATES FEW OR NO CLOUDS BELOW 12,000 FEET WITH NO
SIGNIFICANT WEATHER AND/OR OBSTRUCTIONS TO VISIBILITY.

KSZ001>006-013>018-027>032-041>047-301300-
NORTHWEST KANSAS

CITY           SKY/WX    TMP DP  RH WIND       PRES   REMARKS
GOODLAND       MOCLDY    63  48  58 SW10      30.08S
6HR MIN TEMP:  60; 6HR MAX TEMP:  66;

HAYS           CLOUDY    54  46  76 CALM      30.06R VSB<1/4
HILL CITY      CLEAR     55  54  96 E3        30.06R FOG
6HR MIN TEMP:  54; 6HR MAX TEMP:  64;

RUSSELL        FOG       53  53 100 S5        30.04S VSB 1/4
6HR MIN TEMP:  53; 6HR MAX TEMP:  60;

$$

KSZ061>065-074>080-084>089-301300-
SOUTHWEST KANSAS

CITY           SKY/WX    TMP DP  RH WIND       PRES   REMARKS
DODGE CITY     FOG       54  54 100 SW8       30.07S VSB 1/4
6HR MIN TEMP:  52; 6HR MAX TEMP:  61;

ELKHART          N/A     67  48  50 S8          N/A
GARDEN CITY    FAIR      55  53  93 W5        30.08S
6HR MIN TEMP:  52; 6HR MAX TEMP:  66;

GREAT BEND     CLOUDY    55  50  82 CALM      30.06R VSB 1/4
LIBERAL        CLEAR     57  48  72 N3        30.09S
$$

KSZ066>073-081>083-090>101-301300-
SOUTHEAST KANSAS

CITY           SKY/WX    TMP DP  RH WIND       PRES   REMARKS
CHANUTE        FOG       67  67 100 NE5       30.00R VSB 1/4
6HR MIN TEMP:  65; 6HR MAX TEMP:  68;

COFFEYVILLE    CLEAR     64  64 100 NW5       29.98S FOG
6HR MIN TEMP:  64; 6HR MAX TEMP:  67;

HUTCHINSON     CLEAR     53  51  93 NW3       30.04R FOG
6HR MIN TEMP:  53; 6HR MAX TEMP:  58;

NEWTON         CLOUDY    63  57  82 E3        30.05S VSB<1/4
PARSONS        FOG       67  67 100 VRB3      30.00R VSB 1
6HR MIN TEMP:  63; 6HR MAX TEMP:  67; 6HR PCP: TRACE;

WICHITA INTL   CLOUDY    63  60  90 N3        30.02S
6HR MIN TEMP:  60; 6HR MAX TEMP:  66;

WICHITA JABRA  FOG       61  61 100 N3        30.02R VSB 1/4
6HR MIN TEMP:  58; 6HR MAX TEMP:  61;

WICHITA MCCONL FOG       63  61  94 NE5       30.02R VSB<1/4
$$

KSZ007>012-019>026-033>040-048>060-102>105-301300-
NORTHEAST KANSAS

CITY           SKY/WX    TMP DP  RH WIND       PRES   REMARKS
CONCORDIA      FOG       57  57 100 CALM      30.05R VSB 1/4
6HR MIN TEMP:  56; 6HR MAX TEMP:  60;

EMPORIA        FOG       62  62 100 CALM      30.03R VSB 1/2
6HR MIN TEMP:  62; 6HR MAX TEMP:  63;

LAWRENCE       FOG       66  65  96 E5        30.02R VSB 1/4
6HR MIN TEMP:  61; 6HR MAX TEMP:  67;

MANHATTAN      FOG       62  62 100 CALM      30.04R VSB 1/4
6HR MIN TEMP:  60; 6HR MAX TEMP:  64;

OLATHE IND     FOG       68  68 100 NE6       30.02R VSB 1/4
6HR MIN TEMP:  65; 6HR MAX TEMP:  68;

OLATHE EXE     FOG       67  67 100 NE6       30.01R VSB 1/4
6HR MIN TEMP:  67; 6HR MAX TEMP:  68;

SALINA         FOG       62  61  96 CALM      30.04S VSB 1/4
6HR MIN TEMP:  58; 6HR MAX TEMP:  63;

TOPEKA BILLARD FOG       63  63 100 W3        30.03R VSB 1/4
6HR MIN TEMP:  59; 6HR MAX TEMP:  64;

TOPEKA FORBES  FOG       64  62  93 N5        30.03R VSB 1/4
6HR MIN TEMP:  60; 6HR MAX TEMP:  67;

$$


USA.gov is the U.S. government's official web portal to all federal, state and local government web resources and services.